Time,TemperatureF,DewpointF,PressureIn,WindDirection,WindDirectionDegrees,WindSpeedMPH,WindSpeedGustMPH,Humidity,HourlyPrecipIn,Conditions,Clouds,dailyrainin,SoftwareType,DateUTC
2013-05-06 00:01:00,66.6,59.9,29.87,ENE,72,1.0,4.0,79,0.00,,---,0.00,VWS V14.01,2013-05-06 04:01:00,
2013-05-06 00:02:00,66.6,59.5,29.88,ENE,71,2.0,4.0,78,0.00,,---,0.00,VWS V14.01,2013-05-06 04:02:00,
2013-05-06 00:03:00,66.6,59.5,29.88,ENE,71,2.0,4.0,78,0.00,,---,0.00,VWS V14.01,2013-05-06 04:03:00,
2013-05-06 00:08:00,66.8,58.6,29.88,NW,310,2.0,5.0,75,0.00,,---,0.00,VWS V14.01,2013-05-06 04:08:00,
2013-05-06 00:12:00,66.9,58.3,29.88,NW,310,2.0,5.0,74,0.00,,---,0.00,VWS V14.01,2013-05-06 04:12:00,
2013-05-06 00:17:00,67.1,57.8,29.88,NW,306,3.0,5.0,72,0.00,,---,0.00,VWS V14.01,2013-05-06 04:17:00,
2013-05-06 00:22:00,67.4,57.7,29.88,NW,305,1.0,5.0,71,0.00,,---,0.00,VWS V14.01,2013-05-06 04:22:00,
2013-05-06 00:27:00,67.4,57.7,29.88,NW,306,2.0,5.0,71,0.00,,---,0.00,VWS V14.01,2013-05-06 04:27:00,
2013-05-06 00:32:00,67.4,57.7,29.88,NW,306,5.0,5.0,71,0.00,,---,0.00,VWS V14.01,2013-05-06 04:32:00,
2013-05-06 00:37:00,67.4,58.1,29.88,NW,306,2.0,3.0,72,0.00,,---,0.00,VWS V14.01,2013-05-06 04:37:00,
2013-05-06 00:42:00,67.4,58.1,29.88,NW,306,3.0,3.0,72,0.00,,---,0.00,VWS V14.01,2013-05-06 04:42:00,
2013-05-06 00:47:00,67.3,58.4,29.88,NW,306,2.0,4.0,73,0.00,,---,0.00,VWS V14.01,2013-05-06 04:47:00,
2013-05-06 00:52:00,67.1,58.2,29.88,NW,305,1.0,4.0,73,0.00,,---,0.00,VWS V14.01,2013-05-06 04:52:00,
2013-05-06 00:57:00,67.1,58.5,29.88,NW,305,1.0,4.0,74,0.00,,---,0.00,VWS V14.01,2013-05-06 04:57:00,
2013-05-06 01:02:00,66.8,58.6,29.88,NW,305,5.0,5.0,75,0.00,,---,0.00,VWS V14.01,2013-05-06 05:02:00,
2013-05-06 01:07:00,66.6,58.4,29.88,NW,305,2.0,4.0,75,0.00,,---,0.00,VWS V14.01,2013-05-06 05:07:00,
2013-05-06 01:12:00,66.4,58.2,29.88,NW,305,1.0,4.0,75,0.00,,---,0.00,VWS V14.01,2013-05-06 05:12:00,
2013-05-06 01:17:00,66.3,58.2,29.88,NW,305,1.0,4.0,75,0.00,,---,0.00,VWS V14.01,2013-05-06 05:17:00,
2013-05-06 01:22:00,66.1,58.3,29.88,NW,305,2.0,4.0,76,0.00,,---,0.00,VWS V14.01,2013-05-06 05:22:00,
2013-05-06 01:27:00,66.0,58.2,29.88,NW,305,0.0,4.0,76,0.00,,---,0.00,VWS V14.01,2013-05-06 05:27:00,
2013-05-06 01:32:00,65.8,58.4,29.88,NW,305,1.0,4.0,77,0.00,,---,0.00,VWS V14.01,2013-05-06 05:32:00,
2013-05-06 01:37:00,65.6,58.2,29.88,NW,305,1.0,3.0,77,0.00,,---,0.00,VWS V14.01,2013-05-06 05:37:00,
2013-05-06 01:42:00,65.5,58.5,29.88,NW,305,0.0,3.0,78,0.00,,---,0.00,VWS V14.01,2013-05-06 05:42:00,
2013-05-06 01:47:00,65.3,58.3,29.87,NW,305,0.0,3.0,78,0.00,,---,0.00,VWS V14.01,2013-05-06 05:47:00,
2013-05-06 01:52:00,65.2,58.2,29.87,NW,305,0.0,3.0,78,0.00,,---,0.00,VWS V14.01,2013-05-06 05:52:00,
2013-05-06 01:57:00,65.0,58.3,29.87,NW,305,0.0,3.0,79,0.00,,---,0.00,VWS V14.01,2013-05-06 05:57:00,
2013-05-06 02:03:00,64.8,58.1,29.87,NW,305,1.0,3.0,79,0.00,,---,0.00,VWS V14.01,2013-05-06 06:03:00,
2013-05-06 02:08:00,64.7,58.0,29.87,NW,305,0.0,3.0,79,0.00,,---,0.00,VWS V14.01,2013-05-06 06:08:00,
2013-05-06 02:13:00,64.5,57.8,29.87,NW,305,3.0,3.0,79,0.00,,---,0.00,VWS V14.01,2013-05-06 06:13:00,
2013-05-06 02:18:00,64.3,57.7,29.87,WNW,300,0.0,3.0,79,0.00,,---,0.00,VWS V14.01,2013-05-06 06:18:00,
2013-05-06 02:23:00,64.3,57.7,29.87,WNW,300,1.0,3.0,79,0.00,,---,0.00,VWS V14.01,2013-05-06 06:23:00,
2013-05-06 02:28:00,64.2,57.6,29.87,WNW,300,2.0,3.0,79,0.00,,---,0.00,VWS V14.01,2013-05-06 06:28:00,
2013-05-06 02:33:00,64.0,57.4,29.86,WNW,300,2.0,3.0,79,0.00,,---,0.00,VWS V14.01,2013-05-06 06:33:00,
2013-05-06 02:38:00,64.0,57.4,29.86,WNW,300,1.0,3.0,79,0.00,,---,0.00,VWS V14.01,2013-05-06 06:38:00,
2013-05-06 02:43:00,63.9,57.3,29.86,WNW,300,0.0,3.0,79,0.00,,---,0.00,VWS V14.01,2013-05-06 06:43:00,
2013-05-06 02:48:00,63.9,57.6,29.86,WNW,300,2.0,3.0,80,0.00,,---,0.00,VWS V14.01,2013-05-06 06:48:00,
2013-05-06 02:53:00,63.7,57.4,29.86,WNW,300,1.0,3.0,80,0.00,,---,0.00,VWS V14.01,2013-05-06 06:53:00,
2013-05-06 02:58:00,63.7,57.8,29.86,WNW,300,2.0,4.0,81,0.00,,---,0.00,VWS V14.01,2013-05-06 06:58:00,
2013-05-06 03:03:00,63.5,57.6,29.86,WNW,300,1.0,1.0,81,0.00,,---,0.00,VWS V14.01,2013-05-06 07:03:00,
2013-05-06 03:08:00,63.5,57.6,29.86,WNW,300,3.0,4.0,81,0.00,,---,0.00,VWS V14.01,2013-05-06 07:08:00,
2013-05-06 03:13:00,63.4,57.8,29.86,WNW,300,2.0,4.0,82,0.00,,---,0.00,VWS V14.01,2013-05-06 07:13:00,
2013-05-06 03:18:00,63.4,57.8,29.86,WNW,295,0.0,4.0,82,0.00,,---,0.00,VWS V14.01,2013-05-06 07:18:00,
2013-05-06 03:23:00,63.4,57.8,29.86,WNW,295,3.0,4.0,82,0.00,,---,0.00,VWS V14.01,2013-05-06 07:23:00,
2013-05-06 03:28:00,63.4,57.8,29.86,WNW,295,2.0,4.0,82,0.00,,---,0.00,VWS V14.01,2013-05-06 07:28:00,
2013-05-06 03:33:00,63.4,57.8,29.86,WNW,295,2.0,2.0,82,0.00,,---,0.00,VWS V14.01,2013-05-06 07:33:00,
2013-05-06 03:39:00,63.4,57.8,29.86,WNW,295,2.0,4.0,82,0.00,,---,0.00,VWS V14.01,2013-05-06 07:39:00,
2013-05-06 03:44:00,63.2,57.6,29.86,WNW,295,0.0,4.0,82,0.00,,---,0.00,VWS V14.01,2013-05-06 07:44:00,
2013-05-06 03:49:00,63.2,57.6,29.86,WNW,295,1.0,4.0,82,0.00,,---,0.00,VWS V14.01,2013-05-06 07:49:00,
2013-05-06 03:54:00,63.1,57.9,29.86,WNW,295,0.0,4.0,83,0.00,,---,0.00,VWS V14.01,2013-05-06 07:54:00,
2013-05-06 03:59:00,63.1,57.9,29.86,WNW,295,1.0,4.0,83,0.00,,---,0.00,VWS V14.01,2013-05-06 07:59:00,
2013-05-06 04:04:00,62.9,57.7,29.86,WNW,295,0.0,0.0,83,0.00,,---,0.00,VWS V14.01,2013-05-06 08:04:00,
2013-05-06 04:09:00,62.7,57.5,29.86,WNW,295,1.0,2.0,83,0.00,,---,0.00,VWS V14.01,2013-05-06 08:09:00,
2013-05-06 04:14:00,62.6,57.4,29.86,WNW,295,0.0,2.0,83,0.00,,---,0.00,VWS V14.01,2013-05-06 08:14:00,
2013-05-06 04:19:00,62.4,57.5,29.87,WNW,295,0.0,2.0,84,0.00,,---,0.00,VWS V14.01,2013-05-06 08:19:00,
2013-05-06 04:24:00,62.4,57.5,29.87,WNW,295,0.0,2.0,84,0.00,,---,0.00,VWS V14.01,2013-05-06 08:24:00,
2013-05-06 04:29:00,62.3,57.4,29.87,WNW,295,0.0,2.0,84,0.00,,---,0.00,VWS V14.01,2013-05-06 08:29:00,
2013-05-06 04:34:00,62.1,57.5,29.88,WNW,295,1.0,1.0,85,0.00,,---,0.00,VWS V14.01,2013-05-06 08:34:00,
2013-05-06 04:39:00,62.0,57.8,29.88,WNW,295,0.0,3.0,86,0.00,,---,0.00,VWS V14.01,2013-05-06 08:39:00,
2013-05-06 04:44:00,62.0,57.8,29.88,WNW,295,0.0,3.0,86,0.00,,---,0.00,VWS V14.01,2013-05-06 08:44:00,
2013-05-06 04:49:00,62.0,57.8,29.88,WNW,295,1.0,3.0,86,0.00,,---,0.00,VWS V14.01,2013-05-06 08:49:00,
2013-05-06 04:54:00,61.8,57.6,29.88,WNW,295,0.0,3.0,86,0.00,,---,0.00,VWS V14.01,2013-05-06 08:54:00,
2013-05-06 04:59:00,61.8,57.6,29.88,WNW,295,0.0,3.0,86,0.00,,---,0.00,VWS V14.01,2013-05-06 08:59:00,
2013-05-06 05:04:00,61.6,57.4,29.88,WNW,295,0.0,0.0,86,0.00,,---,0.00,VWS V14.01,2013-05-06 09:04:00,
2013-05-06 05:09:00,61.6,57.7,29.88,WNW,295,0.0,0.0,87,0.00,,---,0.00,VWS V14.01,2013-05-06 09:09:00,
2013-05-06 05:14:00,61.5,57.9,29.88,WNW,295,0.0,0.0,88,0.00,,---,0.00,VWS V14.01,2013-05-06 09:14:00,
2013-05-06 05:19:00,61.3,57.7,29.88,WNW,295,0.0,0.0,88,0.00,,---,0.00,VWS V14.01,2013-05-06 09:19:00,
2013-05-06 05:24:00,61.2,57.6,29.88,WNW,295,0.0,0.0,88,0.00,,---,0.00,VWS V14.01,2013-05-06 09:24:00,
2013-05-06 05:29:00,61.0,57.7,29.88,WNW,295,0.0,0.0,89,0.00,,---,0.00,VWS V14.01,2013-05-06 09:29:00,
2013-05-06 05:34:00,60.9,58.0,29.89,WNW,295,0.0,0.0,90,0.00,,---,0.00,VWS V14.01,2013-05-06 09:34:00,
2013-05-06 05:40:00,60.7,57.8,29.89,WNW,295,0.0,0.0,90,0.00,,---,0.00,VWS V14.01,2013-05-06 09:40:00,
2013-05-06 05:45:00,60.7,58.1,29.89,WNW,295,0.0,1.0,91,0.00,,---,0.00,VWS V14.01,2013-05-06 09:45:00,
2013-05-06 05:50:00,60.5,58.2,29.89,WNW,295,1.0,1.0,92,0.00,,---,0.00,VWS V14.01,2013-05-06 09:50:00,
2013-05-06 05:55:00,60.4,58.1,29.89,WNW,295,0.0,1.0,92,0.00,,---,0.00,VWS V14.01,2013-05-06 09:55:00,
2013-05-06 06:00:00,60.4,58.4,29.89,WNW,295,2.0,2.0,93,0.00,,---,0.00,VWS V14.01,2013-05-06 10:00:00,
2013-05-06 06:05:00,60.5,58.5,29.90,WNW,295,3.0,3.0,93,0.00,,---,0.00,VWS V14.01,2013-05-06 10:05:00,
2013-05-06 06:10:00,60.5,58.5,29.90,WNW,295,1.0,3.0,93,0.00,,---,0.00,VWS V14.01,2013-05-06 10:10:00,
2013-05-06 06:15:00,60.7,59.0,29.90,WNW,295,0.0,3.0,94,0.00,,---,0.00,VWS V14.01,2013-05-06 10:15:00,
2013-05-06 06:20:00,60.7,59.0,29.90,WNW,295,0.0,3.0,94,0.00,,---,0.00,VWS V14.01,2013-05-06 10:20:00,
2013-05-06 06:25:00,60.7,59.0,29.90,WNW,295,0.0,3.0,94,0.00,,---,0.00,VWS V14.01,2013-05-06 10:25:00,
2013-05-06 06:30:00,60.9,59.2,29.90,WNW,295,0.0,3.0,94,0.00,,---,0.00,VWS V14.01,2013-05-06 10:30:00,
2013-05-06 06:36:00,60.9,59.2,29.91,WNW,295,0.0,1.0,94,0.00,,---,0.00,VWS V14.01,2013-05-06 10:36:00,
2013-05-06 06:41:00,60.9,59.2,29.91,WNW,295,0.0,1.0,94,0.00,,---,0.00,VWS V14.01,2013-05-06 10:41:00,
2013-05-06 06:46:00,60.7,59.0,29.91,WNW,295,0.0,1.0,94,0.00,,---,0.00,VWS V14.01,2013-05-06 10:46:00,
2013-05-06 06:51:00,60.7,59.0,29.91,ENE,63,0.0,1.0,94,0.00,,---,0.00,VWS V14.01,2013-05-06 10:51:00,
2013-05-06 06:56:00,60.7,59.0,29.91,ENE,63,0.0,1.0,94,0.00,,---,0.00,VWS V14.01,2013-05-06 10:56:00,
2013-05-06 07:01:00,60.7,59.0,29.91,ENE,67,0.0,1.0,94,0.00,,---,0.00,VWS V14.01,2013-05-06 11:01:00,
2013-05-06 07:06:00,60.7,59.0,29.92,ENE,67,0.0,0.0,94,0.00,,---,0.00,VWS V14.01,2013-05-06 11:06:00,
2013-05-06 07:11:00,60.7,59.0,29.92,ENE,67,0.0,0.0,94,0.00,,---,0.00,VWS V14.01,2013-05-06 11:11:00,
2013-05-06 07:16:00,60.9,59.5,29.92,ENE,65,0.0,3.0,95,0.00,,---,0.00,VWS V14.01,2013-05-06 11:16:00,
2013-05-06 07:21:00,61.0,59.6,29.92,ENE,65,2.0,3.0,95,0.00,,---,0.00,VWS V14.01,2013-05-06 11:21:00,
2013-05-06 07:26:00,61.2,59.8,29.92,ENE,65,0.0,3.0,95,0.00,,---,0.00,VWS V14.01,2013-05-06 11:26:00,
2013-05-06 07:31:00,61.5,60.1,29.92,ENE,65,0.0,3.0,95,0.00,,---,0.00,VWS V14.01,2013-05-06 11:31:00,
2013-05-06 07:36:00,61.8,60.1,29.93,ENE,65,0.0,0.0,94,0.00,,---,0.00,VWS V14.01,2013-05-06 11:36:00,
2013-05-06 07:41:00,62.1,60.4,29.93,ENE,65,0.0,0.0,94,0.00,,---,0.00,VWS V14.01,2013-05-06 11:41:00,
2013-05-06 07:46:00,62.6,60.8,29.93,ENE,65,0.0,2.0,94,0.00,,---,0.00,VWS V14.01,2013-05-06 11:46:00,
2013-05-06 07:51:00,63.1,61.3,29.94,ENE,65,1.0,2.0,94,0.00,,---,0.00,VWS V14.01,2013-05-06 11:51:00,
2013-05-06 07:56:00,63.5,61.4,29.94,ENE,65,0.0,2.0,93,0.00,,---,0.00,VWS V14.01,2013-05-06 11:56:00,
2013-05-06 08:01:00,64.0,61.9,29.94,ENE,65,3.0,3.0,93,0.00,,---,0.00,VWS V14.01,2013-05-06 12:01:00,
2013-05-06 08:06:00,64.5,61.8,29.94,ENE,63,0.0,3.0,91,0.00,,---,0.00,VWS V14.01,2013-05-06 12:06:00,
2013-05-06 08:11:00,65.2,61.9,29.94,ENE,63,2.0,3.0,89,0.00,,---,0.00,VWS V14.01,2013-05-06 12:11:00,
2013-05-06 08:17:00,65.8,61.8,29.95,ENE,63,0.0,3.0,87,0.00,,---,0.00,VWS V14.01,2013-05-06 12:17:00,
2013-05-06 08:22:00,66.3,62.0,29.95,ENE,63,0.0,3.0,86,0.00,,---,0.00,VWS V14.01,2013-05-06 12:22:00,
2013-05-06 08:27:00,66.8,61.8,29.95,ENE,63,0.0,3.0,84,0.00,,---,0.00,VWS V14.01,2013-05-06 12:27:00,
2013-05-06 08:32:00,67.3,62.0,29.95,ENE,63,0.0,3.0,83,0.00,,---,0.00,VWS V14.01,2013-05-06 12:32:00,
2013-05-06 08:37:00,67.9,62.2,29.95,ENE,63,2.0,2.0,82,0.00,,---,0.00,VWS V14.01,2013-05-06 12:37:00,
2013-05-06 08:42:00,68.4,62.3,29.95,ENE,63,1.0,2.0,81,0.00,,---,0.00,VWS V14.01,2013-05-06 12:42:00,
2013-05-06 08:47:00,68.9,62.1,29.95,ENE,63,0.0,2.0,79,0.00,,---,0.00,VWS V14.01,2013-05-06 12:47:00,
2013-05-06 08:52:00,69.6,62.4,29.95,ENE,63,2.0,3.0,78,0.00,,---,0.00,VWS V14.01,2013-05-06 12:52:00,
2013-05-06 08:57:00,70.1,62.6,29.95,North,355,6.0,6.0,77,0.00,,---,0.00,VWS V14.01,2013-05-06 12:57:00,
2013-05-06 09:02:00,70.8,62.5,29.95,WSW,250,0.0,6.0,75,0.00,,---,0.00,VWS V14.01,2013-05-06 13:02:00,
2013-05-06 09:07:00,71.1,62.4,29.95,WSW,251,4.0,5.0,74,0.00,,---,0.00,VWS V14.01,2013-05-06 13:07:00,
2013-05-06 09:12:00,71.5,62.4,29.95,WSW,252,1.0,5.0,73,0.00,,---,0.00,VWS V14.01,2013-05-06 13:12:00,
2013-05-06 09:17:00,71.8,63.1,29.95,WSW,252,3.0,5.0,74,0.00,,---,0.00,VWS V14.01,2013-05-06 13:17:00,
2013-05-06 09:22:00,72.1,62.6,29.95,NW,323,0.0,5.0,72,0.00,,---,0.00,VWS V14.01,2013-05-06 13:22:00,
2013-05-06 09:27:00,72.7,63.2,29.95,NNW,342,0.0,5.0,72,0.00,,---,0.00,VWS V14.01,2013-05-06 13:27:00,
2013-05-06 09:32:00,73.2,63.2,29.95,NNW,338,0.0,5.0,71,0.00,,---,0.00,VWS V14.01,2013-05-06 13:32:00,
2013-05-06 09:37:00,73.5,62.7,29.95,NNW,336,4.0,4.0,69,0.00,,---,0.00,VWS V14.01,2013-05-06 13:37:00,
2013-05-06 09:42:00,73.9,62.7,29.95,NNW,335,2.0,4.0,68,0.00,,---,0.00,VWS V14.01,2013-05-06 13:42:00,
2013-05-06 09:47:00,74.2,62.5,29.95,NNW,335,2.0,4.0,67,0.00,,---,0.00,VWS V14.01,2013-05-06 13:47:00,
2013-05-06 09:52:00,74.7,63.0,29.95,NNW,334,2.0,4.0,67,0.00,,---,0.00,VWS V14.01,2013-05-06 13:52:00,
2013-05-06 09:58:00,74.9,62.3,29.95,NNW,329,2.0,4.0,65,0.00,,---,0.00,VWS V14.01,2013-05-06 13:58:00,
2013-05-06 10:03:00,75.1,63.0,29.95,WNW,302,2.0,5.0,66,0.00,,---,0.00,VWS V14.01,2013-05-06 14:03:00,
2013-05-06 10:08:00,75.3,62.7,29.95,WNW,300,3.0,5.0,65,0.00,,---,0.00,VWS V14.01,2013-05-06 14:08:00,
2013-05-06 10:13:00,75.4,62.4,29.95,WNW,301,6.0,6.0,64,0.00,,---,0.00,VWS V14.01,2013-05-06 14:13:00,
2013-05-06 10:18:00,75.6,62.6,29.95,WNW,300,2.0,6.0,64,0.00,,---,0.00,VWS V14.01,2013-05-06 14:18:00,
2013-05-06 10:23:00,76.1,62.6,29.95,WNW,300,1.0,6.0,63,0.00,,---,0.00,VWS V14.01,2013-05-06 14:23:00,
2013-05-06 10:28:00,76.5,63.0,29.95,WNW,297,4.0,6.0,63,0.00,,---,0.00,VWS V14.01,2013-05-06 14:28:00,
2013-05-06 10:33:00,77.0,63.5,29.95,WNW,298,4.0,6.0,63,0.00,,---,0.00,VWS V14.01,2013-05-06 14:33:00,
2013-05-06 10:38:00,77.2,62.7,29.95,WNW,294,0.0,6.0,61,0.00,,---,0.00,VWS V14.01,2013-05-06 14:38:00,
2013-05-06 10:43:00,77.6,62.2,29.95,WNW,294,1.0,6.0,59,0.00,,---,0.00,VWS V14.01,2013-05-06 14:43:00,
2013-05-06 10:48:00,77.9,62.4,29.95,WNW,294,2.0,6.0,59,0.00,,---,0.00,VWS V14.01,2013-05-06 14:48:00,
2013-05-06 10:53:00,78.1,62.6,29.95,WNW,294,2.0,6.0,59,0.00,,---,0.00,VWS V14.01,2013-05-06 14:53:00,
2013-05-06 10:58:00,78.3,62.3,29.95,WNW,294,1.0,6.0,58,0.00,,---,0.00,VWS V14.01,2013-05-06 14:58:00,
2013-05-06 11:03:00,78.6,62.6,29.94,WNW,290,2.0,2.0,58,0.00,,---,0.00,VWS V14.01,2013-05-06 15:03:00,
2013-05-06 11:08:00,78.8,62.3,29.94,WNW,290,3.0,6.0,57,0.00,,---,0.00,VWS V14.01,2013-05-06 15:08:00,
2013-05-06 11:13:00,78.8,61.8,29.94,WNW,286,1.0,6.0,56,0.00,,---,0.00,VWS V14.01,2013-05-06 15:13:00,
2013-05-06 11:18:00,79.0,63.5,29.94,WNW,295,5.0,6.0,59,0.00,,---,0.00,VWS V14.01,2013-05-06 15:18:00,
2013-05-06 11:23:00,79.6,62.0,29.94,WNW,297,4.0,6.0,55,0.00,,---,0.00,VWS V14.01,2013-05-06 15:23:00,
2013-05-06 11:28:00,80.1,62.5,29.94,WNW,297,2.0,6.0,55,0.00,,---,0.00,VWS V14.01,2013-05-06 15:28:00,
2013-05-06 11:33:00,80.9,61.6,29.94,WNW,296,1.0,2.0,52,0.00,,---,0.00,VWS V14.01,2013-05-06 15:33:00,
2013-05-06 11:38:00,81.1,60.2,29.94,WNW,293,3.0,6.0,49,0.00,,---,0.00,VWS V14.01,2013-05-06 15:38:00,
2013-05-06 11:43:00,80.7,60.3,29.94,WNW,289,2.0,6.0,50,0.00,,---,0.00,VWS V14.01,2013-05-06 15:43:00,
2013-05-06 11:48:00,80.5,59.6,29.94,WNW,285,2.0,6.0,49,0.00,,---,0.00,VWS V14.01,2013-05-06 15:48:00,
2013-05-06 11:54:00,80.9,60.5,29.94,WNW,285,1.0,6.0,50,0.00,,---,0.00,VWS V14.01,2013-05-06 15:54:00,
2013-05-06 11:59:00,81.4,58.0,29.94,WNW,285,2.0,6.0,45,0.00,,---,0.00,VWS V14.01,2013-05-06 15:59:00,
2013-05-06 12:04:00,81.8,57.1,29.93,WNW,285,0.0,0.0,43,0.00,,---,0.00,VWS V14.01,2013-05-06 16:04:00,
2013-05-06 12:09:00,82.4,58.3,29.93,WNW,285,1.0,3.0,44,0.00,,---,0.00,VWS V14.01,2013-05-06 16:09:00,
2013-05-06 12:14:00,82.8,58.7,29.93,WNW,284,2.0,5.0,44,0.00,,---,0.00,VWS V14.01,2013-05-06 16:14:00,
2013-05-06 12:19:00,83.2,59.0,29.93,WNW,286,3.0,5.0,44,0.00,,---,0.00,VWS V14.01,2013-05-06 16:19:00,
2013-05-06 12:24:00,83.0,60.1,29.93,West,276,4.0,8.0,46,0.00,,---,0.00,VWS V14.01,2013-05-06 16:24:00,
2013-05-06 12:29:00,82.8,59.3,29.93,West,274,1.0,8.0,45,0.00,,---,0.00,VWS V14.01,2013-05-06 16:29:00,
2013-05-06 12:34:00,83.0,60.1,29.92,West,273,3.0,4.0,46,0.00,,---,0.00,VWS V14.01,2013-05-06 16:34:00,
2013-05-06 12:39:00,83.0,59.5,29.92,West,269,4.0,12.0,45,0.00,,---,0.00,VWS V14.01,2013-05-06 16:39:00,
2013-05-06 12:44:00,82.8,59.9,29.92,West,273,2.0,12.0,46,0.00,,---,0.00,VWS V14.01,2013-05-06 16:44:00,
2013-05-06 12:49:00,83.0,59.5,29.92,WNW,284,5.0,12.0,45,0.00,,---,0.00,VWS V14.01,2013-05-06 16:49:00,
2013-05-06 12:54:00,83.2,60.3,29.92,West,263,4.0,12.0,46,0.00,,---,0.00,VWS V14.01,2013-05-06 16:54:00,
2013-05-06 12:59:00,83.4,60.5,29.92,West,269,4.0,12.0,46,0.00,,---,0.00,VWS V14.01,2013-05-06 16:59:00,
2013-05-06 13:04:00,83.6,60.7,29.92,West,271,2.0,2.0,46,0.00,,---,0.00,VWS V14.01,2013-05-06 17:04:00,
2013-05-06 13:09:00,84.0,59.8,29.92,WNW,294,8.0,9.0,44,0.00,,---,0.00,VWS V14.01,2013-05-06 17:09:00,
2013-05-06 13:14:00,84.1,59.2,29.92,West,278,1.0,9.0,43,0.00,,---,0.00,VWS V14.01,2013-05-06 17:14:00,
2013-05-06 13:19:00,84.3,60.0,29.92,WSW,258,2.0,9.0,44,0.00,,---,0.00,VWS V14.01,2013-05-06 17:19:00,
2013-05-06 13:24:00,84.1,60.5,29.92,WSW,246,5.0,9.0,45,0.00,,---,0.00,VWS V14.01,2013-05-06 17:24:00,
2013-05-06 13:29:00,84.3,60.0,29.92,WSW,248,1.0,9.0,44,0.00,,---,0.00,VWS V14.01,2013-05-06 17:29:00,
2013-05-06 13:34:00,84.5,58.9,29.92,WSW,257,3.0,6.0,42,0.00,,---,0.00,VWS V14.01,2013-05-06 17:34:00,
2013-05-06 13:39:00,84.1,60.5,29.92,WSW,256,6.0,6.0,45,0.00,,---,0.00,VWS V14.01,2013-05-06 17:39:00,
2013-05-06 13:45:00,83.2,60.9,29.92,WNW,286,4.0,6.0,47,0.00,,---,0.00,VWS V14.01,2013-05-06 17:45:00,
2013-05-06 13:50:00,83.2,60.3,29.91,West,279,5.0,6.0,46,0.00,,---,0.00,VWS V14.01,2013-05-06 17:50:00,
2013-05-06 13:55:00,82.6,60.3,29.91,West,261,4.0,6.0,47,0.00,,---,0.00,VWS V14.01,2013-05-06 17:55:00,
2013-05-06 14:00:00,82.4,61.3,29.91,West,261,2.0,6.0,49,0.00,,---,0.00,VWS V14.01,2013-05-06 18:00:00,
2013-05-06 14:05:00,82.8,61.1,29.91,West,263,1.0,2.0,48,0.00,,---,0.00,VWS V14.01,2013-05-06 18:05:00,
2013-05-06 14:10:00,83.6,61.3,29.91,West,263,3.0,5.0,47,0.00,,---,0.00,VWS V14.01,2013-05-06 18:10:00,
2013-05-06 14:15:00,83.6,59.4,29.91,West,264,0.0,7.0,44,0.00,,---,0.00,VWS V14.01,2013-05-06 18:15:00,
2013-05-06 14:20:00,84.3,63.7,29.90,West,264,1.0,7.0,50,0.00,,---,0.00,VWS V14.01,2013-05-06 18:20:00,
2013-05-06 14:25:00,84.9,59.9,29.90,West,264,1.0,7.0,43,0.00,,---,0.00,VWS V14.01,2013-05-06 18:25:00,
2013-05-06 14:30:00,85.3,60.9,29.90,West,264,0.0,7.0,44,0.00,,---,0.00,VWS V14.01,2013-05-06 18:30:00,
2013-05-06 14:35:00,85.3,61.6,29.90,West,259,0.0,4.0,45,0.00,,---,0.00,VWS V14.01,2013-05-06 18:35:00,
2013-05-06 14:40:00,85.3,60.3,29.90,West,259,0.0,4.0,43,0.00,,---,0.00,VWS V14.01,2013-05-06 18:40:00,
2013-05-06 14:45:00,85.7,59.3,29.90,West,259,2.0,4.0,41,0.00,,---,0.00,VWS V14.01,2013-05-06 18:45:00,
2013-05-06 14:50:00,85.7,60.7,29.89,SW,219,3.0,6.0,43,0.00,,---,0.00,VWS V14.01,2013-05-06 18:50:00,
2013-05-06 14:55:00,85.5,59.8,29.89,West,272,2.0,7.0,42,0.00,,---,0.00,VWS V14.01,2013-05-06 18:55:00,
2013-05-06 15:00:00,85.1,58.8,29.89,West,272,3.0,7.0,41,0.00,,---,0.00,VWS V14.01,2013-05-06 19:00:00,
2013-05-06 15:05:00,84.9,60.6,29.88,South,171,4.0,4.0,44,0.00,,---,0.00,VWS V14.01,2013-05-06 19:05:00,
2013-05-06 15:10:00,84.7,59.8,29.88,SSW,206,2.0,10.0,43,0.00,,---,0.00,VWS V14.01,2013-05-06 19:10:00,
2013-05-06 15:15:00,84.9,61.2,29.88,SSW,208,2.0,10.0,45,0.00,,---,0.00,VWS V14.01,2013-05-06 19:15:00,
2013-05-06 15:20:00,85.3,60.3,29.88,SSW,207,2.0,10.0,43,0.00,,---,0.00,VWS V14.01,2013-05-06 19:20:00,
2013-05-06 15:25:00,85.7,61.3,29.88,SSW,202,3.0,10.0,44,0.00,,---,0.00,VWS V14.01,2013-05-06 19:25:00,
2013-05-06 15:30:00,85.7,60.0,29.88,WSW,244,2.0,10.0,42,0.00,,---,0.00,VWS V14.01,2013-05-06 19:30:00,
2013-05-06 15:35:00,85.5,59.8,29.87,SSW,201,2.0,3.0,42,0.00,,---,0.00,VWS V14.01,2013-05-06 19:35:00,
2013-05-06 15:40:00,84.9,58.6,29.87,SSW,207,3.0,9.0,41,0.00,,---,0.00,VWS V14.01,2013-05-06 19:40:00,
2013-05-06 15:46:00,85.1,60.1,29.87,SW,236,5.0,9.0,43,0.00,,---,0.00,VWS V14.01,2013-05-06 19:46:00,
2013-05-06 15:51:00,85.3,59.0,29.87,SSW,208,5.0,9.0,41,0.00,,---,0.00,VWS V14.01,2013-05-06 19:51:00,
2013-05-06 15:56:00,84.9,59.3,29.87,SSW,202,4.0,9.0,42,0.00,,---,0.00,VWS V14.01,2013-05-06 19:56:00,
2013-05-06 16:01:00,85.1,60.1,29.87,SW,227,4.0,9.0,43,0.00,,---,0.00,VWS V14.01,2013-05-06 20:01:00,
2013-05-06 16:06:00,84.9,59.3,29.86,WSW,243,3.0,5.0,42,0.00,,---,0.00,VWS V14.01,2013-05-06 20:06:00,
2013-05-06 16:11:00,84.1,58.5,29.86,SSW,209,5.0,7.0,42,0.00,,---,0.00,VWS V14.01,2013-05-06 20:11:00,
2013-05-06 16:16:00,83.4,59.8,29.86,SW,219,2.0,7.0,45,0.00,,---,0.00,VWS V14.01,2013-05-06 20:16:00,
2013-05-06 16:21:00,83.2,60.3,29.86,SSW,209,4.0,7.0,46,0.00,,---,0.00,VWS V14.01,2013-05-06 20:21:00,
2013-05-06 16:26:00,83.2,59.7,29.86,West,265,6.0,10.0,45,0.00,,---,0.00,VWS V14.01,2013-05-06 20:26:00,
2013-05-06 16:31:00,83.2,59.7,29.86,West,264,7.0,10.0,45,0.00,,---,0.00,VWS V14.01,2013-05-06 20:31:00,
2013-05-06 16:36:00,83.0,60.1,29.86,WSW,248,3.0,5.0,46,0.00,,---,0.00,VWS V14.01,2013-05-06 20:36:00,
2013-05-06 16:41:00,82.6,59.8,29.86,SW,219,2.0,6.0,46,0.00,,---,0.00,VWS V14.01,2013-05-06 20:41:00,
2013-05-06 16:46:00,82.6,60.3,29.86,SW,229,4.0,6.0,47,0.00,,---,0.00,VWS V14.01,2013-05-06 20:46:00,
2013-05-06 16:51:00,82.6,60.9,29.86,SW,217,2.0,6.0,48,0.00,,---,0.00,VWS V14.01,2013-05-06 20:51:00,
2013-05-06 16:56:00,82.6,60.3,29.86,SW,236,4.0,7.0,47,0.00,,---,0.00,VWS V14.01,2013-05-06 20:56:00,
2013-05-06 17:01:00,82.6,60.3,29.86,SW,236,5.0,7.0,47,0.00,,---,0.00,VWS V14.01,2013-05-06 21:01:00,
2013-05-06 17:06:00,83.2,60.3,29.86,SW,236,6.0,6.0,46,0.00,,---,0.00,VWS V14.01,2013-05-06 21:06:00,
2013-05-06 17:11:00,84.0,61.0,29.86,WSW,252,1.0,7.0,46,0.00,,---,0.00,VWS V14.01,2013-05-06 21:11:00,
2013-05-06 17:16:00,84.5,60.8,29.86,SW,217,3.0,7.0,45,0.00,,---,0.00,VWS V14.01,2013-05-06 21:16:00,
2013-05-06 17:21:00,84.0,61.0,29.86,WSW,250,5.0,7.0,46,0.00,,---,0.00,VWS V14.01,2013-05-06 21:21:00,
2013-05-06 17:26:00,83.0,60.1,29.86,WSW,257,2.0,7.0,46,0.00,,---,0.00,VWS V14.01,2013-05-06 21:26:00,
2013-05-06 17:31:00,82.8,61.1,29.86,SW,225,4.0,7.0,48,0.00,,---,0.00,VWS V14.01,2013-05-06 21:31:00,
2013-05-06 17:36:00,82.8,61.1,29.85,WSW,250,3.0,4.0,48,0.00,,---,0.00,VWS V14.01,2013-05-06 21:36:00,
2013-05-06 17:42:00,83.0,60.7,29.85,WSW,252,3.0,5.0,47,0.00,,---,0.00,VWS V14.01,2013-05-06 21:42:00,
2013-05-06 17:47:00,83.2,60.9,29.85,WSW,252,1.0,5.0,47,0.00,,---,0.00,VWS V14.01,2013-05-06 21:47:00,
2013-05-06 17:52:00,83.8,62.0,29.85,WSW,253,2.0,5.0,48,0.00,,---,0.00,VWS V14.01,2013-05-06 21:52:00,
2013-05-06 17:57:00,84.3,63.1,29.85,West,270,3.0,9.0,49,0.00,,---,0.00,VWS V14.01,2013-05-06 21:57:00,
2013-05-06 18:02:00,84.0,63.4,29.85,WSW,258,6.0,9.0,50,0.00,,---,0.00,VWS V14.01,2013-05-06 22:02:00,
2013-05-06 18:07:00,83.2,64.3,29.85,West,276,2.0,8.0,53,0.00,,---,0.00,VWS V14.01,2013-05-06 22:07:00,
2013-05-06 18:12:00,82.6,64.3,29.85,West,275,2.0,8.0,54,0.00,,---,0.00,VWS V14.01,2013-05-06 22:12:00,
2013-05-06 18:17:00,82.2,64.4,29.85,WNW,283,6.0,8.0,55,0.00,,---,0.00,VWS V14.01,2013-05-06 22:17:00,
2013-05-06 18:22:00,82.0,64.3,29.85,West,275,3.0,8.0,55,0.00,,---,0.00,VWS V14.01,2013-05-06 22:22:00,
2013-05-06 18:27:00,82.0,64.3,29.85,West,275,3.0,8.0,55,0.00,,---,0.00,VWS V14.01,2013-05-06 22:27:00,
2013-05-06 18:32:00,81.8,64.1,29.85,West,277,3.0,8.0,55,0.00,,---,0.00,VWS V14.01,2013-05-06 22:32:00,
2013-05-06 18:37:00,82.2,64.4,29.85,WNW,290,3.0,7.0,55,0.00,,---,0.00,VWS V14.01,2013-05-06 22:37:00,
2013-05-06 18:42:00,82.2,62.8,29.85,NE,47,2.0,7.0,52,0.00,,---,0.00,VWS V14.01,2013-05-06 22:42:00,
2013-05-06 18:47:00,81.8,63.5,29.86,NW,317,2.0,7.0,54,0.00,,---,0.00,VWS V14.01,2013-05-06 22:47:00,
2013-05-06 18:52:00,81.6,62.8,29.86,NW,317,1.0,7.0,53,0.00,,---,0.00,VWS V14.01,2013-05-06 22:52:00,
2013-05-06 18:57:00,81.4,62.6,29.86,WNW,303,0.0,7.0,53,0.00,,---,0.00,VWS V14.01,2013-05-06 22:57:00,
2013-05-06 19:02:00,81.1,62.9,29.86,WNW,292,3.0,7.0,54,0.00,,---,0.00,VWS V14.01,2013-05-06 23:02:00,
2013-05-06 19:07:00,80.9,63.2,29.86,SW,214,0.0,2.0,55,0.00,,---,0.00,VWS V14.01,2013-05-06 23:07:00,
2013-05-06 19:12:00,80.7,62.0,29.86,SW,214,1.0,2.0,53,0.00,,---,0.00,VWS V14.01,2013-05-06 23:12:00,
2013-05-06 19:17:00,80.5,62.3,29.86,ESE,119,0.0,3.0,54,0.00,,---,0.00,VWS V14.01,2013-05-06 23:17:00,
2013-05-06 19:23:00,80.3,62.2,29.86,ESE,119,2.0,3.0,54,0.00,,---,0.00,VWS V14.01,2013-05-06 23:23:00,
2013-05-06 19:28:00,80.3,63.2,29.86,North,355,4.0,4.0,56,0.00,,---,0.00,VWS V14.01,2013-05-06 23:28:00,
2013-05-06 19:33:00,79.9,64.8,29.87,NNW,340,3.0,6.0,60,0.00,,---,0.00,VWS V14.01,2013-05-06 23:33:00,
2013-05-06 19:38:00,79.9,65.3,29.87,NW,317,4.0,5.0,61,0.00,,---,0.00,VWS V14.01,2013-05-06 23:38:00,
2013-05-06 19:43:00,79.8,66.1,29.87,NNW,338,2.0,7.0,63,0.00,,---,0.00,VWS V14.01,2013-05-06 23:43:00,
2013-05-06 19:48:00,79.6,66.4,29.87,NNW,332,3.0,11.0,64,0.00,,---,0.00,VWS V14.01,2013-05-06 23:48:00,
2013-05-06 19:53:00,79.4,66.2,29.87,NNW,332,5.0,11.0,64,0.00,,---,0.00,VWS V14.01,2013-05-06 23:53:00,
2013-05-06 19:58:00,79.2,65.5,29.87,NNW,333,3.0,11.0,63,0.00,,---,0.00,VWS V14.01,2013-05-06 23:58:00,
2013-05-06 20:03:00,79.0,65.3,29.88,NNW,334,3.0,11.0,63,0.00,,---,0.00,VWS V14.01,2013-05-07 00:03:00,
2013-05-06 20:08:00,79.0,66.2,29.88,NNW,335,3.0,6.0,65,0.00,,---,0.00,VWS V14.01,2013-05-07 00:08:00,
2013-05-06 20:13:00,78.6,65.9,29.88,NNW,343,4.0,6.0,65,0.00,,---,0.00,VWS V14.01,2013-05-07 00:13:00,
2013-05-06 20:18:00,78.6,66.3,29.88,NNW,346,3.0,9.0,66,0.00,,---,0.00,VWS V14.01,2013-05-07 00:18:00,
2013-05-06 20:23:00,78.5,66.2,29.88,WNW,299,2.0,9.0,66,0.00,,---,0.00,VWS V14.01,2013-05-07 00:23:00,
2013-05-06 20:28:00,78.3,66.4,29.88,NW,306,2.0,9.0,67,0.00,,---,0.00,VWS V14.01,2013-05-07 00:28:00,
2013-05-06 20:33:00,78.1,66.3,29.89,NW,306,2.0,3.0,67,0.00,,---,0.00,VWS V14.01,2013-05-07 00:33:00,
2013-05-06 20:38:00,78.1,66.3,29.89,NW,304,5.0,5.0,67,0.00,,---,0.00,VWS V14.01,2013-05-07 00:38:00,
2013-05-06 20:43:00,77.9,66.1,29.89,NW,304,2.0,5.0,67,0.00,,---,0.00,VWS V14.01,2013-05-07 00:43:00,
2013-05-06 20:48:00,77.7,65.9,29.90,North,350,2.0,9.0,67,0.00,,---,0.00,VWS V14.01,2013-05-07 00:48:00,
2013-05-06 20:53:00,77.6,65.3,29.90,NNW,348,3.0,9.0,66,0.00,,---,0.00,VWS V14.01,2013-05-07 00:53:00,
2013-05-06 20:58:00,77.4,65.6,29.90,NNW,347,4.0,9.0,67,0.00,,---,0.00,VWS V14.01,2013-05-07 00:58:00,
2013-05-06 21:03:00,77.2,65.4,29.90,NNW,347,3.0,3.0,67,0.00,,---,0.00,VWS V14.01,2013-05-07 01:03:00,
2013-05-06 21:08:00,77.0,65.2,29.90,NNW,347,1.0,3.0,67,0.00,,---,0.00,VWS V14.01,2013-05-07 01:08:00,
2013-05-06 21:13:00,76.8,65.4,29.90,NNW,347,1.0,4.0,68,0.00,,---,0.00,VWS V14.01,2013-05-07 01:13:00,
2013-05-06 21:18:00,76.7,65.3,29.91,NNW,347,0.0,4.0,68,0.00,,---,0.00,VWS V14.01,2013-05-07 01:18:00,
2013-05-06 21:24:00,76.7,65.3,29.91,NNW,347,0.0,4.0,68,0.00,,---,0.00,VWS V14.01,2013-05-07 01:24:00,
2013-05-06 21:29:00,76.5,65.6,29.91,NNW,347,3.0,4.0,69,0.00,,---,0.00,VWS V14.01,2013-05-07 01:29:00,
2013-05-06 21:34:00,76.3,65.4,29.91,NNW,347,3.0,3.0,69,0.00,,---,0.00,VWS V14.01,2013-05-07 01:34:00,
2013-05-06 21:39:00,76.0,65.1,29.91,NNW,347,2.0,3.0,69,0.00,,---,0.00,VWS V14.01,2013-05-07 01:39:00,
2013-05-06 21:44:00,76.0,65.1,29.91,NNW,347,1.0,3.0,69,0.00,,---,0.00,VWS V14.01,2013-05-07 01:44:00,
2013-05-06 21:49:00,75.8,64.9,29.91,NNW,347,1.0,3.0,69,0.00,,---,0.00,VWS V14.01,2013-05-07 01:49:00,
2013-05-06 21:54:00,75.6,65.1,29.91,NNW,347,0.0,3.0,70,0.00,,---,0.00,VWS V14.01,2013-05-07 01:54:00,
2013-05-06 21:59:00,75.4,64.9,29.91,NNW,347,0.0,3.0,70,0.00,,---,0.00,VWS V14.01,2013-05-07 01:59:00,
2013-05-06 22:04:00,75.3,65.3,29.92,NNW,347,0.0,0.0,71,0.00,,---,0.00,VWS V14.01,2013-05-07 02:04:00,
2013-05-06 22:09:00,75.1,65.1,29.92,NNW,346,1.0,1.0,71,0.00,,---,0.00,VWS V14.01,2013-05-07 02:09:00,
2013-05-06 22:14:00,74.9,64.9,29.92,NNW,346,0.0,1.0,71,0.00,,---,0.00,VWS V14.01,2013-05-07 02:14:00,
2013-05-06 22:19:00,74.9,65.3,29.93,NNW,346,0.0,4.0,72,0.00,,---,0.00,VWS V14.01,2013-05-07 02:19:00,
2013-05-06 22:24:00,74.9,65.7,29.93,NNW,346,0.0,4.0,73,0.00,,---,0.00,VWS V14.01,2013-05-07 02:24:00,
2013-05-06 22:29:00,74.7,65.9,29.93,NNW,343,2.0,4.0,74,0.00,,---,0.00,VWS V14.01,2013-05-07 02:29:00,
2013-05-06 22:34:00,74.6,65.4,29.93,NNW,341,3.0,5.0,73,0.00,,---,0.00,VWS V14.01,2013-05-07 02:34:00,
2013-05-06 22:39:00,74.4,64.8,29.93,NW,315,1.0,5.0,72,0.00,,---,0.00,VWS V14.01,2013-05-07 02:39:00,
2013-05-06 22:44:00,74.4,64.8,29.93,NW,315,1.0,5.0,72,0.00,,---,0.00,VWS V14.01,2013-05-07 02:44:00,
2013-05-06 22:49:00,74.2,64.2,29.93,NW,315,4.0,5.0,71,0.00,,---,0.00,VWS V14.01,2013-05-07 02:49:00,
2013-05-06 22:54:00,74.0,64.0,29.93,NW,315,2.0,5.0,71,0.00,,---,0.00,VWS V14.01,2013-05-07 02:54:00,
2013-05-06 22:59:00,74.0,64.0,29.93,NW,315,1.0,5.0,71,0.00,,---,0.00,VWS V14.01,2013-05-07 02:59:00,
2013-05-06 23:04:00,73.9,63.5,29.93,NW,315,3.0,3.0,70,0.00,,---,0.00,VWS V14.01,2013-05-07 03:04:00,
2013-05-06 23:09:00,73.9,63.5,29.93,NW,315,1.0,3.0,70,0.00,,---,0.00,VWS V14.01,2013-05-07 03:09:00,
2013-05-06 23:14:00,73.7,63.3,29.93,NW,315,0.0,3.0,70,0.00,,---,0.00,VWS V14.01,2013-05-07 03:14:00,
2013-05-06 23:20:00,73.5,63.1,29.93,NW,315,0.0,3.0,70,0.00,,---,0.00,VWS V14.01,2013-05-07 03:20:00,
2013-05-06 23:25:00,73.5,63.5,29.93,NW,315,0.0,3.0,71,0.00,,---,0.00,VWS V14.01,2013-05-07 03:25:00,
2013-05-06 23:30:00,73.3,63.3,29.93,NW,315,0.0,3.0,71,0.00,,---,0.00,VWS V14.01,2013-05-07 03:30:00,
2013-05-06 23:35:00,73.0,63.5,29.94,NW,315,0.0,0.0,72,0.00,,---,0.00,VWS V14.01,2013-05-07 03:35:00,
2013-05-06 23:40:00,72.8,63.7,29.94,NW,315,0.0,0.0,73,0.00,,---,0.00,VWS V14.01,2013-05-07 03:40:00,
2013-05-06 23:45:00,72.7,63.9,29.94,NW,315,0.0,2.0,74,0.00,,---,0.00,VWS V14.01,2013-05-07 03:45:00,
2013-05-06 23:50:00,72.5,64.1,29.94,NW,315,0.0,2.0,75,0.00,,---,0.00,VWS V14.01,2013-05-07 03:50:00,
2013-05-06 23:55:00,72.3,64.3,29.94,NW,315,0.0,2.0,76,0.00,,---,0.00,VWS V14.01,2013-05-07 03:55:00,